This is the latest recevied weather packets stored in our database for station/object AE0NK. If no packets are shown the sender has not sent any weather packets the latest 10 day(s).
| Time | Temp. | Humidity | Pressure | Rain* | Wind** | Luminosity | Snow |
|---|---|---|---|---|---|---|---|
| 1778077102 | 8.33° C | 45% | 1016.6 hPa | 0 mm | - | 244 W/m² | - |
| 1778076801 | 8.33° C | 46% | 1016.7 hPa | 0 mm | - | 420 W/m² | - |
| 1778076518 | 8.33° C | 45% | 1016.6 hPa | 0 mm | - | 422 W/m² | - |
| 1778076210 | 8.33° C | 45% | 1016.6 hPa | 0 mm | - | 448 W/m² | - |
| 1778075905 | 8.33° C | 45% | 1016.6 hPa | 0 mm | - | 390 W/m² | - |
| 1778075604 | 7.78° C | 46% | 1016.6 hPa | 0 mm | - | 285 W/m² | - |
| 1778075303 | 7.78° C | 48% | 1016.6 hPa | 0 mm | - | 417 W/m² | - |
| 1778075000 | 7.22° C | 49% | 1016.5 hPa | 0 mm | - | 360 W/m² | - |
| 1778074699 | 7.22° C | 49% | 1016.6 hPa | 0 mm | - | 276 W/m² | - |
| 1778074395 | 7.22° C | 51% | 1016.5 hPa | 0 mm | - | 139 W/m² | - |
| 1778074092 | 7.22° C | 52% | 1016.5 hPa | 0 mm | - | 199 W/m² | - |
| 1778073808 | 7.22° C | 54% | 1016.5 hPa | 0 mm | - | 158 W/m² | - |
| 1778073505 | 6.67° C | 55% | 1016.5 hPa | 0 mm | - | 134 W/m² | - |
| 1778073201 | 6.67° C | 56% | 1016.4 hPa | 0 mm | - | 107 W/m² | - |
| 1778072899 | 6.67° C | 54% | 1016.5 hPa | 0 mm | - | 125 W/m² | - |
| 1778072596 | 6.67° C | 56% | 1016.3 hPa | 0 mm | - | 127 W/m² | - |
| 1778072310 | 6.67° C | 56% | 1016.3 hPa | 0 mm | - | 121 W/m² | - |
| 1778072008 | 6.67° C | 56% | 1016.2 hPa | 0 mm | - | 111 W/m² | - |
| 1778071705 | 6.67° C | 58% | 1016.2 hPa | 0 mm | - | 114 W/m² | - |
| 1778071403 | 6.11° C | 56% | 1016.1 hPa | 0 mm | - | 105 W/m² | - |
| 1778071100 | 6.11° C | 56% | 1016 hPa | 0 mm | - | 116 W/m² | - |
| 1778070798 | 6.11° C | 56% | 1016 hPa | 0 mm | - | 95 W/m² | - |
| 1778070496 | 5.56° C | 59% | 1015.9 hPa | 0 mm | - | 69 W/m² | - |
| 1778070195 | 5.56° C | 57% | 1015.9 hPa | 0 mm | - | 62 W/m² | - |
| 1778069910 | 5.56° C | 58% | 1015.8 hPa | 0 mm | - | 63 W/m² | - |
* Rain latest hour (hover to see other rain measurements)
** Current wind speed in m/s (hover to see current wind gust speed)